Regional Weather Roundup
Issued by NWS Kansas City/Pleasant Hill, MO

Home | Current Version | Previous Version | Text Only | Print | Product List | Glossary On
Versions: 1 2 3 4 5 6 7 8 9 10 11 12 13 14 15 16 17 18 19 20 21 22 23 24 25 26 27 28 29 30 31 32 33 34 35 36 37 38 39 40 41 42 43 44 45 46 47 48 49 50
000
ASUS43 KEAX 240411
RWREAX

WEATHER ROUNDUP FOR EASTERN KANSAS AND NORTHWEST MISSOURI
NATIONAL WEATHER SERVICE KANSAS CITY/PLEASANT HILL MO
1100 PM CDT WED JUL 23 2014

KSZ040-057-103>105-MOZ028-029-037-043-240500-
...KANSAS CITY METROPOLITAN AREA...

CITY           SKY/WX    TMP DP  RH WIND       PRES   REMARKS
K.C. INTL      CLEAR     74  63  68 NE7       30.14S
K.C. DOWNTOWN  CLEAR     76  62  62 E9        30.13R
LEES SUMMIT    CLEAR     74  63  68 E7        30.14R
OLATHE - IXD   CLEAR     73  62  68 NE3       30.15R
OLATHE - OJC   CLEAR     74  62  66 NE5       30.14R
LAWRENCE       CLEAR     73  64  73 NE7       30.13R

$$

MOZ001>008-011>017-020>025-030>033-038>040-044>046-053-054-240500-
...NORTHERN AND CENTRAL MISSOURI...

CITY           SKY/WX    TMP DP  RH WIND       PRES   REMARKS
ST. JOSEPH     CLEAR     74  62  66 E8        30.14S
MOSBY          CLEAR     73  61  64 N3        30.13S
WARRENSBURG    CLEAR     70  63  78 N3        30.13R
WHITEMAN AFB   CLEAR     70  55  58 NE6       30.12R
CLINTON        CLEAR     72  64  78 CALM      30.12R
SEDALIA        CLEAR     73  63  70 NE7       30.13R
WARSAW         NOT AVBL
MARSHALL       CLEAR     73  64  73 NE8       30.14S
CHILLICOTHE      N/A     71  60  68 NE3       30.16R
MOBERLY        CLEAR     64  59  82 NE6       30.15F
KIRKSVILLE     CLEAR     67  57  70 E5        30.17S

$$

MOZ041-047>049-056>058-063>065-088>090-097-240500-
...EASTERN AND SOUTHERN MISSOURI...

CITY           SKY/WX    TMP DP  RH WIND       PRES   REMARKS
ST. LOUIS INTL CLEAR     73  59  61 NE6       30.12S
SPIRIT OF STL  CLEAR     68  60  75 E3        30.10S
COLUMBIA       CLEAR     69  61  75 NE8       30.13R
JEFFERSON CITY CLEAR     74  61  63 NE8       30.11R
MEXICO         CLEAR     68  63  83 NE5       30.14S
HANNIBAL       CLEAR     66  55  68 NE3       30.15S
ROLLA          CLEAR     71  63  75 NE8       30.11R
OSAGE BEACH    CLEAR     73  63  68 NE7       30.11R
SPRINGFIELD    CLEAR     73  69  87 N3        30.09S
BRANSON        FOG       72  72 100 CALM      30.10S VSB<1/4
NEVADA         CLEAR     72  66  83 NE5       30.12S
JOPLIN         CLEAR     73  67  81 N3        30.09S
WEST PLAINS    CLEAR     69  66  90 NW3       30.09F

$$

IAZ060-094-KSZ022-034>040-054-083-096-NEZ052-066-093-240500-
...KANSAS...SOUTHEAST NEBRASKA AND IOWA...

CITY           SKY/WX    TMP DP  RH WIND       PRES   REMARKS
TOPEKA         CLEAR     74  66  76 CALM      30.14R
MANHATTAN      CLEAR     72  63  73 CALM      30.14R
EMPORIA        CLEAR     72  65  78 NE6       30.13S
CHANUTE        CLEAR     76  66  71 NE7       30.11R
WICHITA        CLEAR     78  64  61 E6        30.13R
OMAHA          CLEAR     74  62  66 E7        30.17R
LINCOLN        CLEAR     72  61  68 E6        30.18R
FALLS CITY     CLEAR     71  65  81 E3        30.14R
LAMONI         CLEAR     68  59  73 E3        30.17R
DES MOINES     CLEAR     73  57  57 E3        30.16R

$$



USA.gov is the U.S. government's official web portal to all federal, state and local government web resources and services.